Time,TemperatureF,DewpointF,PressureIn,WindDirection,WindDirectionDegrees,WindSpeedMPH,WindSpeedGustMPH,Humidity,HourlyPrecipIn,Conditions,Clouds,dailyrainin,SoftwareType,DateUTC
2013-09-28 00:04:00,54.6,49.5,26.72,SSE,158,2.9,3.5,83,0.00,,,0.00,WUHU216HW,2013-09-28 04:04:00,
2013-09-28 00:09:00,54.3,49.2,26.72,SSE,158,4.4,4.4,83,0.00,,,0.00,WUHU216HW,2013-09-28 04:09:00,
2013-09-28 00:14:00,54.3,49.2,26.72,SSE,158,4.0,4.4,83,0.00,,,0.00,WUHU216HW,2013-09-28 04:14:00,
2013-09-28 00:19:00,54.1,49.0,26.72,SSE,158,3.5,4.4,83,0.00,,,0.00,WUHU216HW,2013-09-28 04:19:00,
2013-09-28 00:24:00,54.1,49.0,26.72,SSE,158,4.4,4.4,83,0.00,,,0.00,WUHU216HW,2013-09-28 04:24:00,
2013-09-28 00:29:00,53.9,49.2,26.72,SSE,158,4.0,4.4,84,0.00,,,0.00,WUHU216HW,2013-09-28 04:29:00,
2013-09-28 00:34:00,53.9,49.2,26.71,SE,135,4.2,4.4,84,0.00,,,0.00,WUHU216HW,2013-09-28 04:34:00,
2013-09-28 00:40:00,53.9,49.2,26.72,SSE,158,0.0,4.6,84,0.00,,,0.00,WUHU216HW,2013-09-28 04:40:00,
2013-09-28 00:45:00,53.9,49.2,26.72,SSE,158,4.6,4.6,84,0.00,,,0.00,WUHU216HW,2013-09-28 04:45:00,
2013-09-28 00:50:00,53.7,49.0,26.72,SSE,158,4.0,4.6,84,0.00,,,0.00,WUHU216HW,2013-09-28 04:50:00,
2013-09-28 00:55:00,53.6,48.8,26.72,SSE,158,4.9,4.9,84,0.00,,,0.00,WUHU216HW,2013-09-28 04:55:00,
2013-09-28 01:00:00,53.4,48.7,26.72,SSE,158,2.9,5.8,84,0.00,,,0.00,WUHU216HW,2013-09-28 05:00:00,
2013-09-28 01:05:00,53.4,48.7,26.72,SE,135,2.2,6.2,84,0.00,,,0.00,WUHU216HW,2013-09-28 05:05:00,
2013-09-28 01:10:00,53.4,48.7,26.72,SSE,158,1.7,6.2,84,0.00,,,0.00,WUHU216HW,2013-09-28 05:10:00,
2013-09-28 01:15:00,53.4,48.7,26.72,SE,135,4.4,5.1,84,0.00,,,0.00,WUHU216HW,2013-09-28 05:15:00,
2013-09-28 01:20:00,53.4,48.7,26.71,SSE,158,5.3,5.5,84,0.00,,,0.00,WUHU216HW,2013-09-28 05:20:00,
2013-09-28 01:25:00,53.4,48.7,26.71,SSE,158,2.4,5.5,84,0.00,,,0.00,WUHU216HW,2013-09-28 05:25:00,
2013-09-28 01:30:00,53.4,48.7,26.71,SSE,158,1.5,6.2,84,0.00,,,0.00,WUHU216HW,2013-09-28 05:30:00,
2013-09-28 01:35:00,53.4,48.7,26.71,SSE,158,4.0,6.2,84,0.00,,,0.00,WUHU216HW,2013-09-28 05:35:00,
2013-09-28 01:40:00,53.4,48.7,26.71,SSE,158,4.4,4.4,84,0.00,,,0.00,WUHU216HW,2013-09-28 05:40:00,
2013-09-28 01:45:00,53.2,48.5,26.71,SSE,158,6.0,6.0,84,0.00,,,0.00,WUHU216HW,2013-09-28 05:45:00,
2013-09-28 01:50:00,53.2,48.5,26.71,SSE,158,0.0,6.0,84,0.00,,,0.00,WUHU216HW,2013-09-28 05:50:00,
2013-09-28 01:55:00,53.2,48.5,26.71,SSE,158,5.8,6.0,84,0.00,,,0.00,WUHU216HW,2013-09-28 05:55:00,
2013-09-28 02:00:00,52.8,48.1,26.71,SSE,158,3.3,5.8,84,0.00,,,0.00,WUHU216HW,2013-09-28 06:00:00,
2013-09-28 02:05:00,52.8,48.1,26.71,SSE,158,2.0,4.6,84,0.00,,,0.00,WUHU216HW,2013-09-28 06:05:00,
2013-09-28 02:10:00,52.8,48.1,26.71,SSE,158,0.0,3.3,84,0.00,,,0.00,WUHU216HW,2013-09-28 06:10:00,
2013-09-28 02:15:00,52.8,48.1,26.71,SSE,158,2.4,3.5,84,0.00,,,0.00,WUHU216HW,2013-09-28 06:15:00,
2013-09-28 02:20:00,52.7,47.9,26.71,SSE,158,2.9,3.5,84,0.00,,,0.00,WUHU216HW,2013-09-28 06:20:00,
2013-09-28 02:25:00,52.7,47.9,26.71,SSE,158,4.4,4.4,84,0.00,,,0.00,WUHU216HW,2013-09-28 06:25:00,
2013-09-28 02:30:00,52.7,47.9,26.71,SSE,158,1.5,4.4,84,0.00,,,0.00,WUHU216HW,2013-09-28 06:30:00,
2013-09-28 02:35:00,52.5,47.8,26.71,SSE,158,0.4,1.7,84,0.00,,,0.00,WUHU216HW,2013-09-28 06:35:00,
2013-09-28 02:40:00,52.7,47.9,26.71,SSE,158,0.0,1.5,84,0.00,,,0.00,WUHU216HW,2013-09-28 06:40:00,
2013-09-28 02:45:00,52.7,47.9,26.71,SSE,158,0.0,0.4,84,0.00,,,0.00,WUHU216HW,2013-09-28 06:45:00,
2013-09-28 02:50:00,52.5,47.8,26.71,SSE,158,0.0,0.0,84,0.00,,,0.00,WUHU216HW,2013-09-28 06:50:00,
2013-09-28 02:55:00,52.5,47.8,26.71,SSE,158,1.5,1.5,84,0.00,,,0.00,WUHU216HW,2013-09-28 06:55:00,
2013-09-28 03:00:00,52.5,47.8,26.71,SSE,158,2.4,2.9,84,0.00,,,0.00,WUHU216HW,2013-09-28 07:00:00,
2013-09-28 03:05:00,52.5,48.1,26.71,SSE,158,0.0,2.9,85,0.00,,,0.00,WUHU216HW,2013-09-28 07:05:00,
2013-09-28 03:10:00,52.5,48.1,26.71,SSE,158,0.0,2.4,85,0.00,,,0.00,WUHU216HW,2013-09-28 07:10:00,
2013-09-28 03:15:00,52.5,48.1,26.71,SSE,158,0.0,0.8,85,0.00,,,0.00,WUHU216HW,2013-09-28 07:15:00,
2013-09-28 03:20:00,52.5,48.1,26.71,SSE,158,1.3,1.3,85,0.00,,,0.00,WUHU216HW,2013-09-28 07:20:00,
2013-09-28 03:25:00,52.5,48.1,26.71,SSE,158,0.0,1.3,85,0.00,,,0.00,WUHU216HW,2013-09-28 07:25:00,
2013-09-28 03:30:00,52.5,48.1,26.71,SSE,158,1.1,1.3,85,0.00,,,0.00,WUHU216HW,2013-09-28 07:30:00,
2013-09-28 03:35:00,52.5,48.1,26.71,SSE,158,0.0,1.3,85,0.00,,,0.00,WUHU216HW,2013-09-28 07:35:00,
2013-09-28 03:40:00,52.5,48.1,26.71,SSE,158,0.0,1.1,85,0.00,,,0.00,WUHU216HW,2013-09-28 07:40:00,
2013-09-28 03:45:00,52.5,48.1,26.71,SSE,158,0.0,0.0,85,0.00,,,0.00,WUHU216HW,2013-09-28 07:45:00,
2013-09-28 03:50:00,52.5,48.1,26.71,SSE,158,1.3,1.3,85,0.00,,,0.00,WUHU216HW,2013-09-28 07:50:00,
2013-09-28 03:55:00,52.5,48.1,26.71,SSE,158,0.0,1.3,85,0.00,,,0.00,WUHU216HW,2013-09-28 07:55:00,
2013-09-28 04:00:00,52.5,48.1,26.71,SSE,158,0.0,1.3,85,0.00,,,0.00,WUHU216HW,2013-09-28 08:00:00,
2013-09-28 04:05:00,52.5,48.1,26.71,SSE,158,0.0,0.0,85,0.00,,,0.00,WUHU216HW,2013-09-28 08:05:00,
2013-09-28 04:10:00,52.5,48.1,26.71,SSE,158,0.0,0.0,85,0.00,,,0.00,WUHU216HW,2013-09-28 08:10:00,
2013-09-28 04:15:00,52.5,48.1,26.71,SSE,158,2.0,2.2,85,0.00,,,0.00,WUHU216HW,2013-09-28 08:15:00,
2013-09-28 04:20:00,52.5,48.1,26.71,SSE,158,2.6,2.6,85,0.00,,,0.00,WUHU216HW,2013-09-28 08:20:00,
2013-09-28 04:25:00,52.5,48.1,26.71,SSE,158,0.0,2.6,85,0.00,,,0.00,WUHU216HW,2013-09-28 08:25:00,
2013-09-28 04:30:00,52.5,48.4,26.71,SSE,158,0.0,2.6,86,0.00,,,0.00,WUHU216HW,2013-09-28 08:30:00,
2013-09-28 04:35:00,52.5,48.4,26.71,SSE,158,0.0,2.4,86,0.00,,,0.00,WUHU216HW,2013-09-28 08:35:00,
2013-09-28 04:41:00,52.5,48.4,26.71,SSE,158,0.6,2.0,86,0.00,,,0.00,WUHU216HW,2013-09-28 08:41:00,
2013-09-28 04:46:00,52.5,48.4,26.71,SSE,158,0.0,2.0,86,0.00,,,0.00,WUHU216HW,2013-09-28 08:46:00,
2013-09-28 04:51:00,52.5,48.4,26.71,SSE,158,2.0,2.9,86,0.00,,,0.00,WUHU216HW,2013-09-28 08:51:00,
2013-09-28 04:56:00,52.5,48.4,26.71,SSE,158,2.6,2.9,86,0.00,,,0.00,WUHU216HW,2013-09-28 08:56:00,
2013-09-28 05:01:00,52.5,48.4,26.71,SSE,158,1.5,2.6,86,0.00,,,0.00,WUHU216HW,2013-09-28 09:01:00,
2013-09-28 05:06:00,52.5,48.4,26.71,SSE,158,0.0,1.5,86,0.00,,,0.00,WUHU216HW,2013-09-28 09:06:00,
2013-09-28 05:11:00,52.5,48.4,26.71,SSE,158,2.0,2.0,86,0.00,,,0.00,WUHU216HW,2013-09-28 09:11:00,
2013-09-28 05:16:00,52.3,48.2,26.71,SSE,158,0.0,2.0,86,0.00,,,0.00,WUHU216HW,2013-09-28 09:16:00,
2013-09-28 05:21:00,52.3,48.2,26.71,SSE,158,0.0,0.0,86,0.00,,,0.00,WUHU216HW,2013-09-28 09:21:00,
2013-09-28 05:26:00,52.3,48.2,26.71,SSE,158,0.0,0.0,86,0.00,,,0.00,WUHU216HW,2013-09-28 09:26:00,
2013-09-28 05:31:00,52.3,48.2,26.71,SSE,158,0.0,0.0,86,0.00,,,0.00,WUHU216HW,2013-09-28 09:31:00,
2013-09-28 05:36:00,52.3,48.2,26.71,SSE,158,0.0,0.0,86,0.00,,,0.00,WUHU216HW,2013-09-28 09:36:00,
2013-09-28 05:41:00,52.3,48.2,26.71,SSE,158,0.0,0.0,86,0.00,,,0.00,WUHU216HW,2013-09-28 09:41:00,
2013-09-28 05:46:00,52.3,48.2,26.71,SSE,158,0.0,0.0,86,0.00,,,0.00,WUHU216HW,2013-09-28 09:46:00,
2013-09-28 05:51:00,52.1,48.0,26.71,SSE,158,0.0,0.0,86,0.00,,,0.00,WUHU216HW,2013-09-28 09:51:00,
2013-09-28 05:56:00,52.1,48.0,26.71,SSE,158,0.0,0.0,86,0.00,,,0.00,WUHU216HW,2013-09-28 09:56:00,
2013-09-28 06:01:00,52.1,48.0,26.72,SSE,158,0.0,0.0,86,0.00,,,0.00,WUHU216HW,2013-09-28 10:01:00,
2013-09-28 06:06:00,51.9,47.8,26.72,SSE,158,0.0,0.0,86,0.00,,,0.00,WUHU216HW,2013-09-28 10:06:00,
2013-09-28 06:11:00,51.9,47.8,26.72,SSE,158,0.0,0.0,86,0.00,,,0.00,WUHU216HW,2013-09-28 10:11:00,
2013-09-28 06:16:00,51.9,47.8,26.72,SSE,158,0.0,0.0,86,0.00,,,0.00,WUHU216HW,2013-09-28 10:16:00,
2013-09-28 06:21:00,51.9,47.8,26.72,SSE,158,0.0,0.0,86,0.00,,,0.00,WUHU216HW,2013-09-28 10:21:00,
2013-09-28 06:26:00,51.9,47.8,26.72,SSE,158,0.0,0.0,86,0.00,,,0.00,WUHU216HW,2013-09-28 10:26:00,
2013-09-28 06:31:00,51.9,47.8,26.72,SSE,158,0.0,0.0,86,0.00,,,0.00,WUHU216HW,2013-09-28 10:31:00,
2013-09-28 06:36:00,51.9,48.1,26.72,SSE,158,0.0,0.0,87,0.00,,,0.00,WUHU216HW,2013-09-28 10:36:00,
2013-09-28 06:41:00,51.9,48.1,26.72,SSE,158,0.0,0.0,87,0.00,,,0.00,WUHU216HW,2013-09-28 10:41:00,
2013-09-28 06:46:00,51.8,48.0,26.73,SSE,158,0.0,0.0,87,0.00,,,0.00,WUHU216HW,2013-09-28 10:46:00,
2013-09-28 06:51:00,51.8,48.0,26.72,SSE,158,0.0,0.0,87,0.00,,,0.00,WUHU216HW,2013-09-28 10:51:00,
2013-09-28 06:56:00,51.8,48.0,26.73,SSE,158,0.0,0.0,87,0.00,,,0.00,WUHU216HW,2013-09-28 10:56:00,
2013-09-28 07:01:00,51.8,48.0,26.73,SSE,158,0.0,0.0,87,0.00,,,0.00,WUHU216HW,2013-09-28 11:01:00,
2013-09-28 07:06:00,51.8,48.0,26.73,SSE,158,0.0,0.0,87,0.00,,,0.00,WUHU216HW,2013-09-28 11:06:00,
2013-09-28 07:11:00,51.8,48.0,26.73,SSE,158,0.0,0.0,87,0.00,,,0.00,WUHU216HW,2013-09-28 11:11:00,
2013-09-28 07:16:00,51.6,47.8,26.73,SSE,158,0.0,0.0,87,0.00,,,0.00,WUHU216HW,2013-09-28 11:16:00,
2013-09-28 07:21:00,51.6,47.8,26.73,SSE,158,0.0,0.0,87,0.00,,,0.00,WUHU216HW,2013-09-28 11:21:00,
2013-09-28 07:26:00,51.6,47.8,26.73,SSE,158,0.0,0.0,87,0.00,,,0.00,WUHU216HW,2013-09-28 11:26:00,
2013-09-28 07:31:00,51.6,47.8,26.74,SSE,158,0.0,0.0,87,0.00,,,0.00,WUHU216HW,2013-09-28 11:31:00,
2013-09-28 07:36:00,51.6,47.8,26.74,SSE,158,0.0,0.0,87,0.00,,,0.00,WUHU216HW,2013-09-28 11:36:00,
2013-09-28 07:41:00,51.6,47.8,26.74,SSE,158,0.0,0.0,87,0.00,,,0.00,WUHU216HW,2013-09-28 11:41:00,
2013-09-28 07:46:00,51.8,48.0,26.74,SSE,158,0.0,0.0,87,0.00,,,0.00,WUHU216HW,2013-09-28 11:46:00,
2013-09-28 07:51:00,51.6,47.8,26.74,SSE,158,0.0,0.0,87,0.00,,,0.00,WUHU216HW,2013-09-28 11:51:00,
2013-09-28 07:56:00,51.6,47.8,26.74,SSE,158,0.0,0.0,87,0.00,,,0.00,WUHU216HW,2013-09-28 11:56:00,
2013-09-28 08:01:00,51.8,48.0,26.74,SSE,158,0.0,0.0,87,0.00,,,0.00,WUHU216HW,2013-09-28 12:01:00,
2013-09-28 08:06:00,51.8,48.0,26.74,SSE,158,0.0,0.0,87,0.00,,,0.00,WUHU216HW,2013-09-28 12:06:00,
2013-09-28 08:11:00,51.8,48.0,26.74,SSE,158,0.0,0.0,87,0.00,,,0.00,WUHU216HW,2013-09-28 12:11:00,
2013-09-28 08:16:00,51.6,47.8,26.75,SSE,158,0.0,0.0,87,0.00,,,0.00,WUHU216HW,2013-09-28 12:16:00,
2013-09-28 08:21:00,51.6,47.8,26.75,SSE,158,0.0,0.0,87,0.00,,,0.00,WUHU216HW,2013-09-28 12:21:00,
2013-09-28 08:26:00,51.8,48.0,26.75,SSE,158,0.0,0.0,87,0.00,,,0.00,WUHU216HW,2013-09-28 12:26:00,
2013-09-28 08:31:00,51.9,48.4,26.75,SSE,158,0.0,0.0,88,0.00,,,0.00,WUHU216HW,2013-09-28 12:31:00,
2013-09-28 08:36:00,51.9,48.4,26.76,SSE,158,0.0,0.0,88,0.00,,,0.00,WUHU216HW,2013-09-28 12:36:00,
2013-09-28 08:41:00,52.1,48.6,26.75,SSE,158,0.0,0.0,88,0.00,,,0.00,WUHU216HW,2013-09-28 12:41:00,
2013-09-28 08:46:00,52.1,48.6,26.75,SSE,158,0.0,0.0,88,0.00,,,0.00,WUHU216HW,2013-09-28 12:46:00,
2013-09-28 08:52:00,52.3,48.8,26.76,SSE,158,0.0,0.0,88,0.00,,,0.00,WUHU216HW,2013-09-28 12:52:00,
2013-09-28 08:57:00,52.3,48.8,26.76,SSE,158,0.0,0.0,88,0.00,,,0.00,WUHU216HW,2013-09-28 12:57:00,
2013-09-28 09:02:00,52.3,48.8,26.76,SSE,158,0.0,0.0,88,0.00,,,0.00,WUHU216HW,2013-09-28 13:02:00,
2013-09-28 09:07:00,52.3,49.0,26.76,SSE,158,0.0,0.0,88,0.00,,,0.00,WUHU216HW,2013-09-28 13:07:00,
2013-09-28 09:12:00,52.5,49.0,26.76,SSE,158,0.0,0.0,88,0.00,,,0.00,WUHU216HW,2013-09-28 13:12:00,
2013-09-28 09:17:00,52.7,49.5,26.76,SSE,158,0.0,0.0,89,0.00,,,0.00,WUHU216HW,2013-09-28 13:17:00,
2013-09-28 09:22:00,52.8,49.6,26.76,SSE,158,0.0,0.0,89,0.00,,,0.00,WUHU216HW,2013-09-28 13:22:00,
2013-09-28 09:27:00,53.2,50.0,26.77,SSE,158,0.0,0.0,89,0.00,,,0.00,WUHU216HW,2013-09-28 13:27:00,
2013-09-28 09:32:00,53.2,49.7,26.77,SSE,158,0.0,0.0,88,0.00,,,0.00,WUHU216HW,2013-09-28 13:32:00,
2013-09-28 09:37:00,53.4,49.9,26.77,SSE,158,0.0,0.0,88,0.00,,,0.00,WUHU216HW,2013-09-28 13:37:00,
2013-09-28 09:42:00,53.4,49.9,26.77,SSE,158,0.0,0.0,88,0.00,,,0.00,WUHU216HW,2013-09-28 13:42:00,
2013-09-28 09:47:00,53.4,49.9,26.77,SSE,158,0.0,0.0,88,0.00,,,0.00,WUHU216HW,2013-09-28 13:47:00,
2013-09-28 09:52:00,53.7,50.2,26.77,SSE,158,0.0,0.0,88,0.00,,,0.00,WUHU216HW,2013-09-28 13:52:00,
2013-09-28 09:57:00,53.7,50.2,26.77,SSE,158,0.0,0.0,88,0.00,,,0.00,WUHU216HW,2013-09-28 13:57:00,
2013-09-28 10:02:00,53.9,50.4,26.77,SSE,158,0.0,0.0,88,0.00,,,0.00,WUHU216HW,2013-09-28 14:02:00,
2013-09-28 10:07:00,54.1,50.3,26.77,SSE,158,0.0,0.0,87,0.00,,,0.00,WUHU216HW,2013-09-28 14:07:00,
2013-09-28 10:12:00,54.3,50.4,26.77,SSE,158,0.0,0.0,87,0.00,,,0.00,WUHU216HW,2013-09-28 14:12:00,
2013-09-28 10:17:00,54.5,50.6,26.77,SSE,158,0.0,0.0,87,0.00,,,0.00,WUHU216HW,2013-09-28 14:17:00,
2013-09-28 10:22:00,54.6,50.5,26.77,SSE,158,0.0,0.0,86,0.00,,,0.00,WUHU216HW,2013-09-28 14:22:00,
2013-09-28 10:27:00,54.6,50.5,26.77,SSE,158,0.0,0.0,86,0.00,,,0.00,WUHU216HW,2013-09-28 14:27:00,
2013-09-28 10:32:00,55.2,51.0,26.77,SSE,158,0.0,0.0,86,0.00,,,0.00,WUHU216HW,2013-09-28 14:32:00,
2013-09-28 10:37:00,55.4,50.9,26.77,SE,135,0.0,0.0,85,0.00,,,0.00,WUHU216HW,2013-09-28 14:37:00,
2013-09-28 10:42:00,55.5,51.0,26.77,SE,135,0.0,0.0,85,0.00,,,0.00,WUHU216HW,2013-09-28 14:42:00,
2013-09-28 10:47:00,55.9,51.4,26.77,SE,135,0.0,0.0,85,0.00,,,0.00,WUHU216HW,2013-09-28 14:47:00,
2013-09-28 10:52:00,56.1,51.6,26.77,SE,135,1.7,1.7,85,0.00,,,0.00,WUHU216HW,2013-09-28 14:52:00,
2013-09-28 10:57:00,56.3,51.1,26.77,SE,135,0.0,1.7,83,0.00,,,0.00,WUHU216HW,2013-09-28 14:57:00,
2013-09-28 11:02:00,56.3,51.1,26.77,SE,135,0.0,1.7,83,0.00,,,0.00,WUHU216HW,2013-09-28 15:02:00,
2013-09-28 11:07:00,56.4,51.0,26.77,SE,135,0.0,0.0,82,0.00,,,0.00,WUHU216HW,2013-09-28 15:07:00,
2013-09-28 11:12:00,56.4,51.0,26.77,SE,135,0.0,0.0,82,0.00,,,0.00,WUHU216HW,2013-09-28 15:12:00,
2013-09-28 11:17:00,56.6,51.1,26.77,SE,135,0.0,0.0,82,0.00,,,0.00,WUHU216HW,2013-09-28 15:17:00,
2013-09-28 11:22:00,56.8,51.3,26.77,SE,135,0.0,0.0,82,0.00,,,0.00,WUHU216HW,2013-09-28 15:22:00,
2013-09-28 11:27:00,56.8,51.3,26.77,SE,135,0.0,0.0,82,0.00,,,0.00,WUHU216HW,2013-09-28 15:27:00,
2013-09-28 11:32:00,57.2,51.7,26.77,SE,135,0.0,0.0,82,0.00,,,0.00,WUHU216HW,2013-09-28 15:32:00,
2013-09-28 11:37:00,57.3,51.9,26.77,ESE,113,0.0,0.0,82,0.00,,,0.00,WUHU216HW,2013-09-28 15:37:00,
2013-09-28 11:42:00,57.7,51.9,26.77,SE,135,2.4,2.4,81,0.00,,,0.00,WUHU216HW,2013-09-28 15:42:00,
2013-09-28 11:47:00,58.4,52.3,26.77,SE,135,0.0,2.4,80,0.00,,,0.00,WUHU216HW,2013-09-28 15:47:00,
2013-09-28 11:52:00,58.8,52.7,26.76,East,90,0.0,1.1,80,0.00,,,0.00,WUHU216HW,2013-09-28 15:52:00,
2013-09-28 11:57:00,59.5,53.4,26.76,ENE,68,0.6,2.2,80,0.00,,,0.00,WUHU216HW,2013-09-28 15:57:00,
2013-09-28 12:02:00,59.5,53.4,26.76,ENE,68,0.6,2.2,80,0.00,,,0.00,WUHU216HW,2013-09-28 16:02:00,
2013-09-28 12:07:00,59.5,53.4,26.76,ENE,68,0.6,0.6,80,0.00,,,0.00,WUHU216HW,2013-09-28 16:07:00,
2013-09-28 12:12:00,61.5,54.2,26.76,ESE,113,0.0,0.6,77,0.00,,,0.00,WUHU216HW,2013-09-28 16:12:00,
2013-09-28 12:17:00,61.8,54.5,26.76,SE,135,3.8,3.8,77,0.00,,,0.00,WUHU216HW,2013-09-28 16:17:00,
2013-09-28 12:22:00,61.8,54.5,26.76,SE,135,3.8,3.8,77,0.00,,,0.00,WUHU216HW,2013-09-28 16:22:00,
2013-09-28 12:27:00,61.8,54.5,26.76,SE,135,3.8,3.8,77,0.00,,,0.00,WUHU216HW,2013-09-28 16:27:00,
2013-09-28 12:32:00,63.3,54.8,26.76,ENE,68,0.0,3.8,74,0.00,,,0.00,WUHU216HW,2013-09-28 16:32:00,
2013-09-28 12:37:00,64.0,55.5,26.76,ENE,68,0.0,0.0,74,0.00,,,0.00,WUHU216HW,2013-09-28 16:37:00,
2013-09-28 12:42:00,64.5,56.1,26.76,ENE,68,0.0,0.0,74,0.00,,,0.00,WUHU216HW,2013-09-28 16:42:00,
2013-09-28 12:47:00,64.4,55.2,26.76,ENE,68,0.0,0.0,72,0.00,,,0.00,WUHU216HW,2013-09-28 16:47:00,
2013-09-28 12:53:00,63.6,54.5,26.76,ENE,68,0.0,0.0,72,0.00,,,0.00,WUHU216HW,2013-09-28 16:53:00,
2013-09-28 12:58:00,63.5,54.3,26.76,ENE,68,0.0,0.0,72,0.00,,,0.00,WUHU216HW,2013-09-28 16:58:00,
2013-09-28 13:03:00,64.0,55.2,26.76,ENE,68,0.0,0.0,73,0.00,,,0.00,WUHU216HW,2013-09-28 17:03:00,
2013-09-28 13:08:00,64.0,55.2,26.75,ENE,68,0.0,0.0,73,0.00,,,0.00,WUHU216HW,2013-09-28 17:08:00,
2013-09-28 13:13:00,64.2,54.6,26.74,ENE,68,0.0,0.0,71,0.00,,,0.00,WUHU216HW,2013-09-28 17:13:00,
2013-09-28 13:18:00,64.5,54.6,26.74,ESE,113,0.0,0.0,70,0.00,,,0.00,WUHU216HW,2013-09-28 17:18:00,
2013-09-28 13:23:00,64.9,54.9,26.74,ESE,113,0.0,0.0,70,0.00,,,0.00,WUHU216HW,2013-09-28 17:23:00,
2013-09-28 13:28:00,65.4,55.4,26.74,ESE,113,0.0,0.0,70,0.00,,,0.00,WUHU216HW,2013-09-28 17:28:00,
2013-09-28 13:33:00,65.1,54.2,26.74,ESE,113,0.0,0.0,68,0.00,,,0.00,WUHU216HW,2013-09-28 17:33:00,
2013-09-28 13:38:00,64.5,54.2,26.74,ESE,113,0.0,0.0,69,0.00,,,0.00,WUHU216HW,2013-09-28 17:38:00,
2013-09-28 13:43:00,63.5,52.7,26.74,ESE,113,0.0,0.0,68,0.00,,,0.00,WUHU216HW,2013-09-28 17:43:00,
2013-09-28 13:48:00,62.7,52.4,26.74,ESE,113,0.0,0.0,69,0.00,,,0.00,WUHU216HW,2013-09-28 17:48:00,
2013-09-28 13:53:00,62.7,52.4,26.73,ESE,113,0.0,0.0,69,0.00,,,0.00,WUHU216HW,2013-09-28 17:53:00,
2013-09-28 13:58:00,63.1,52.8,26.73,ESE,113,0.0,0.0,69,0.00,,,0.00,WUHU216HW,2013-09-28 17:58:00,
2013-09-28 14:03:00,63.5,53.6,26.73,WSW,248,0.0,0.0,70,0.00,,,0.00,WUHU216HW,2013-09-28 18:03:00,
2013-09-28 14:08:00,63.6,53.7,26.73,WSW,248,1.5,1.5,70,0.00,,,0.00,WUHU216HW,2013-09-28 18:08:00,
2013-09-28 14:13:00,63.6,53.3,26.72,East,90,0.0,1.5,69,0.00,,,0.00,WUHU216HW,2013-09-28 18:13:00,
2013-09-28 14:18:00,63.5,53.6,26.72,East,90,0.0,0.0,70,0.00,,,0.00,WUHU216HW,2013-09-28 18:18:00,
2013-09-28 14:23:00,64.0,53.9,26.72,ESE,113,0.0,0.0,70,0.00,,,0.00,WUHU216HW,2013-09-28 18:23:00,
2013-09-28 14:28:00,64.0,53.2,26.72,ESE,113,0.0,0.0,68,0.00,,,0.00,WUHU216HW,2013-09-28 18:28:00,
2013-09-28 14:33:00,64.2,53.4,26.72,WSW,248,0.0,0.0,68,0.00,,,0.00,WUHU216HW,2013-09-28 18:33:00,
2013-09-28 14:38:00,64.2,53.4,26.71,WSW,248,0.0,0.0,68,0.00,,,0.00,WUHU216HW,2013-09-28 18:38:00,
2013-09-28 14:43:00,64.2,53.8,26.71,WSW,248,0.0,0.0,69,0.00,,,0.00,WUHU216HW,2013-09-28 18:43:00,
2013-09-28 14:48:00,64.5,54.6,26.71,ESE,113,0.0,0.0,70,0.00,,,0.00,WUHU216HW,2013-09-28 18:48:00,
2013-09-28 14:53:00,64.7,54.3,26.71,SE,135,0.0,0.0,69,0.00,,,0.00,WUHU216HW,2013-09-28 18:53:00,
2013-09-28 14:58:00,64.7,53.5,26.71,ESE,113,0.0,0.0,67,0.00,,,0.00,WUHU216HW,2013-09-28 18:58:00,
2013-09-28 15:03:00,64.5,53.3,26.71,ESE,113,0.0,0.0,67,0.00,,,0.00,WUHU216HW,2013-09-28 19:03:00,
2013-09-28 15:08:00,64.5,53.3,26.71,ESE,113,0.0,0.0,67,0.00,,,0.00,WUHU216HW,2013-09-28 19:08:00,
2013-09-28 15:13:00,64.7,53.5,26.71,ESE,113,0.0,0.0,67,0.00,,,0.00,WUHU216HW,2013-09-28 19:13:00,
2013-09-28 15:18:00,64.9,53.6,26.71,SE,135,0.0,0.0,67,0.00,,,0.00,WUHU216HW,2013-09-28 19:18:00,
2013-09-28 15:23:00,64.9,53.6,26.71,SE,135,0.0,0.0,66,0.00,,,0.00,WUHU216HW,2013-09-28 19:23:00,
2013-09-28 15:28:00,65.1,53.8,26.71,SE,135,0.0,0.0,67,0.00,,,0.00,WUHU216HW,2013-09-28 19:28:00,
2013-09-28 15:33:00,65.1,53.8,26.71,SE,135,4.0,4.0,67,0.00,,,0.00,WUHU216HW,2013-09-28 19:33:00,
2013-09-28 15:38:00,64.9,54.1,26.71,SE,135,3.1,4.0,68,0.00,,,0.00,WUHU216HW,2013-09-28 19:38:00,
2013-09-28 15:43:00,64.7,53.9,26.71,SE,135,0.0,3.1,68,0.00,,,0.00,WUHU216HW,2013-09-28 19:43:00,
2013-09-28 15:48:00,64.9,54.1,26.71,SE,135,0.0,0.8,68,0.00,,,0.00,WUHU216HW,2013-09-28 19:48:00,
2013-09-28 15:53:00,64.5,54.2,26.71,SE,135,0.0,0.0,68,0.00,,,0.00,WUHU216HW,2013-09-28 19:53:00,
2013-09-28 15:58:00,64.7,54.3,26.70,SE,135,0.0,0.0,69,0.00,,,0.00,WUHU216HW,2013-09-28 19:58:00,
2013-09-28 16:03:00,64.7,54.3,26.70,SE,135,0.0,0.0,69,0.00,,,0.00,WUHU216HW,2013-09-28 20:03:00,
2013-09-28 16:09:00,64.9,54.5,26.70,SE,135,0.0,0.0,69,0.00,,,0.00,WUHU216HW,2013-09-28 20:09:00,
2013-09-28 16:14:00,64.9,54.5,26.70,SE,135,0.0,0.0,69,0.00,,,0.00,WUHU216HW,2013-09-28 20:14:00,
2013-09-28 16:19:00,64.9,54.5,26.70,SE,135,0.0,0.0,69,0.00,,,0.00,WUHU216HW,2013-09-28 20:19:00,
2013-09-28 16:24:00,64.9,54.1,26.70,SE,135,0.0,0.0,68,0.00,,,0.00,WUHU216HW,2013-09-28 20:24:00,
2013-09-28 16:29:00,64.9,54.1,26.70,SE,135,0.0,0.0,68,0.00,,,0.00,WUHU216HW,2013-09-28 20:29:00,
2013-09-28 16:34:00,64.7,53.9,26.70,SE,135,0.0,0.0,68,0.00,,,0.00,WUHU216HW,2013-09-28 20:34:00,
2013-09-28 16:39:00,64.5,54.2,26.70,SE,135,0.0,0.0,69,0.00,,,0.00,WUHU216HW,2013-09-28 20:39:00,
2013-09-28 16:44:00,64.4,54.0,26.70,SE,135,0.0,4.6,69,0.00,,,0.00,WUHU216HW,2013-09-28 20:44:00,
2013-09-28 16:49:00,64.2,53.8,26.70,SE,135,0.0,4.6,69,0.00,,,0.00,WUHU216HW,2013-09-28 20:49:00,
2013-09-28 16:54:00,63.6,53.3,26.70,SE,135,0.0,0.0,69,0.00,,,0.00,WUHU216HW,2013-09-28 20:54:00,
2013-09-28 16:59:00,63.5,53.6,26.70,SE,135,0.0,0.0,70,0.00,,,0.00,WUHU216HW,2013-09-28 20:59:00,
2013-09-28 17:04:00,63.3,53.4,26.70,SE,135,0.0,0.0,70,0.00,,,0.00,WUHU216HW,2013-09-28 21:04:00,
2013-09-28 17:09:00,63.1,53.6,26.70,SE,135,0.0,0.0,71,0.00,,,0.00,WUHU216HW,2013-09-28 21:09:00,
2013-09-28 17:14:00,63.1,53.6,26.70,SE,135,0.0,0.0,71,0.00,,,0.00,WUHU216HW,2013-09-28 21:14:00,
2013-09-28 17:19:00,62.9,53.4,26.70,SE,135,0.0,0.0,71,0.00,,,0.00,WUHU216HW,2013-09-28 21:19:00,
2013-09-28 17:24:00,62.7,53.6,26.70,SE,135,0.0,0.0,72,0.00,,,0.00,WUHU216HW,2013-09-28 21:24:00,
2013-09-28 17:29:00,62.4,53.2,26.70,SE,135,0.0,0.0,72,0.00,,,0.00,WUHU216HW,2013-09-28 21:29:00,
2013-09-28 17:34:00,62.2,53.0,26.70,SE,135,0.0,0.0,72,0.00,,,0.00,WUHU216HW,2013-09-28 21:34:00,
2013-09-28 17:39:00,62.0,52.9,26.70,SE,135,2.0,2.0,72,0.00,,,0.00,WUHU216HW,2013-09-28 21:39:00,
2013-09-28 17:44:00,61.8,52.7,26.70,SE,135,0.0,2.9,72,0.00,,,0.00,WUHU216HW,2013-09-28 21:44:00,
2013-09-28 17:49:00,61.5,52.4,26.70,SSE,158,4.4,4.4,72,0.00,,,0.00,WUHU216HW,2013-09-28 21:49:00,
2013-09-28 17:54:00,61.1,52.4,26.70,SSE,158,4.6,5.1,73,0.00,,,0.00,WUHU216HW,2013-09-28 21:54:00,
2013-09-28 17:59:00,61.1,52.4,26.70,SSE,158,4.6,5.1,73,0.00,,,0.00,WUHU216HW,2013-09-28 21:59:00,
2013-09-28 18:04:00,61.1,52.4,26.70,SSE,158,4.6,4.6,73,0.00,,,0.00,WUHU216HW,2013-09-28 22:04:00,
2013-09-28 19:37:00,0.0,-5.2,26.70,SSE,158,3.8,4.4,78,0.00,,,0.00,WUHU216HW,2013-09-28 23:37:00,
2013-09-28 19:42:00,0.0,-5.2,26.70,SSE,158,4.2,4.4,78,0.00,,,0.00,WUHU216HW,2013-09-28 23:42:00,
2013-09-28 19:47:00,56.4,49.6,26.70,SSE,158,0.0,4.2,78,0.00,,,0.00,WUHU216HW,2013-09-28 23:47:00,
2013-09-28 19:52:00,56.4,49.6,26.70,SSE,158,4.2,4.2,78,0.00,,,0.00,WUHU216HW,2013-09-28 23:52:00,
2013-09-28 19:57:00,56.3,49.4,26.70,SSE,158,4.0,4.2,78,0.00,,,0.00,WUHU216HW,2013-09-28 23:57:00,
2013-09-28 20:02:00,56.1,49.6,26.70,SSE,158,1.1,4.2,79,0.00,,,0.00,WUHU216HW,2013-09-29 00:02:00,
2013-09-28 20:07:00,55.9,49.4,26.71,SE,135,4.2,4.2,79,0.00,,,0.00,WUHU216HW,2013-09-29 00:07:00,
2013-09-28 20:12:00,55.9,49.4,26.71,SSE,158,0.0,4.2,79,0.00,,,0.00,WUHU216HW,2013-09-29 00:12:00,
2013-09-28 20:17:00,55.7,49.6,26.71,SSE,158,2.9,4.0,80,0.00,,,0.00,WUHU216HW,2013-09-29 00:17:00,
2013-09-28 20:22:00,55.5,49.1,26.71,SSE,158,4.0,4.0,79,0.00,,,0.00,WUHU216HW,2013-09-29 00:22:00,
2013-09-28 20:27:00,55.4,49.2,26.71,SSE,158,5.5,5.5,80,0.00,,,0.00,WUHU216HW,2013-09-29 00:27:00,
2013-09-28 20:32:00,55.2,49.1,26.71,SSE,158,3.8,5.5,80,0.00,,,0.00,WUHU216HW,2013-09-29 00:32:00,
2013-09-28 20:37:00,55.2,49.4,26.70,SSE,158,4.4,4.4,81,0.00,,,0.00,WUHU216HW,2013-09-29 00:37:00,
2013-09-28 20:42:00,55.2,49.4,26.70,SSE,158,3.1,4.4,81,0.00,,,0.00,WUHU216HW,2013-09-29 00:42:00,
2013-09-28 20:47:00,55.2,49.4,26.71,SSE,158,2.6,3.5,81,0.00,,,0.00,WUHU216HW,2013-09-29 00:47:00,
2013-09-28 20:52:00,55.2,49.4,26.71,SSE,158,3.1,4.6,81,0.00,,,0.00,WUHU216HW,2013-09-29 00:52:00,
2013-09-28 20:57:00,55.0,49.2,26.71,SSE,158,0.6,4.6,81,0.00,,,0.00,WUHU216HW,2013-09-29 00:57:00,
2013-09-28 21:02:00,54.8,49.1,26.71,SSE,158,3.5,4.2,81,0.00,,,0.00,WUHU216HW,2013-09-29 01:02:00,
2013-09-28 21:07:00,54.6,48.9,26.71,SSE,158,0.0,4.0,81,0.00,,,0.00,WUHU216HW,2013-09-29 01:07:00,
2013-09-28 21:12:00,54.6,48.9,26.71,SSE,158,4.6,4.6,81,0.00,,,0.00,WUHU216HW,2013-09-29 01:12:00,
2013-09-28 21:17:00,54.6,49.2,26.71,SSE,158,3.1,4.6,82,0.00,,,0.00,WUHU216HW,2013-09-29 01:17:00,
2013-09-28 21:22:00,54.6,49.2,26.71,SSE,158,0.0,4.4,82,0.00,,,0.00,WUHU216HW,2013-09-29 01:22:00,
2013-09-28 21:27:00,54.6,49.2,26.71,SE,135,3.5,3.5,82,0.00,,,0.00,WUHU216HW,2013-09-29 01:27:00,
2013-09-28 21:32:00,54.6,49.2,26.71,SE,135,0.0,3.5,82,0.00,,,0.00,WUHU216HW,2013-09-29 01:32:00,
2013-09-28 21:37:00,54.6,49.2,26.71,SSE,158,2.6,3.5,82,0.00,,,0.00,WUHU216HW,2013-09-29 01:37:00,
2013-09-28 21:42:00,54.5,49.4,26.71,SSE,158,3.3,3.8,83,0.00,,,0.00,WUHU216HW,2013-09-29 01:42:00,
2013-09-28 21:47:00,54.5,49.4,26.71,SSE,158,2.6,4.0,83,0.00,,,0.00,WUHU216HW,2013-09-29 01:47:00,
2013-09-28 21:52:00,54.5,49.4,26.71,SE,135,5.5,5.5,83,0.00,,,0.00,WUHU216HW,2013-09-29 01:52:00,
2013-09-28 21:57:00,54.5,49.4,26.71,SSE,158,1.1,5.5,83,0.00,,,0.00,WUHU216HW,2013-09-29 01:57:00,
2013-09-28 22:03:00,54.3,49.2,26.71,SSE,158,1.3,4.0,83,0.00,,,0.00,WUHU216HW,2013-09-29 02:03:00,
2013-09-28 22:08:00,54.3,49.2,26.71,SSE,158,2.2,3.8,83,0.00,,,0.00,WUHU216HW,2013-09-29 02:08:00,
2013-09-28 22:13:00,54.3,49.2,26.71,SSE,158,0.0,3.8,83,0.00,,,0.00,WUHU216HW,2013-09-29 02:13:00,
2013-09-28 22:18:00,54.3,49.2,26.71,SSE,158,1.7,2.9,83,0.00,,,0.00,WUHU216HW,2013-09-29 02:18:00,
2013-09-28 22:23:00,54.3,49.2,26.71,SSE,158,2.9,2.9,83,0.00,,,0.00,WUHU216HW,2013-09-29 02:23:00,
2013-09-28 22:28:00,54.3,49.2,26.71,SSE,158,3.3,3.3,83,0.00,,,0.00,WUHU216HW,2013-09-29 02:28:00,
2013-09-28 22:33:00,54.3,49.2,26.71,SSE,158,4.9,4.9,83,0.00,,,0.00,WUHU216HW,2013-09-29 02:33:00,
2013-09-28 22:38:00,54.3,49.2,26.71,SSE,158,0.0,4.9,83,0.00,,,0.00,WUHU216HW,2013-09-29 02:38:00,
2013-09-28 22:43:00,54.3,49.2,26.71,SSE,158,2.4,3.3,83,0.00,,,0.00,WUHU216HW,2013-09-29 02:43:00,
2013-09-28 22:48:00,54.3,49.2,26.71,SSE,158,3.5,3.5,83,0.00,,,0.00,WUHU216HW,2013-09-29 02:48:00,
2013-09-28 22:53:00,54.1,49.0,26.70,SSE,158,4.6,4.6,83,0.00,,,0.00,WUHU216HW,2013-09-29 02:53:00,
2013-09-28 22:58:00,53.9,48.9,26.70,SSE,158,1.3,4.6,83,0.00,,,0.00,WUHU216HW,2013-09-29 02:58:00,
2013-09-28 23:03:00,53.7,48.7,26.70,SSE,158,0.6,4.6,83,0.00,,,0.00,WUHU216HW,2013-09-29 03:03:00,
2013-09-28 23:08:00,53.7,48.7,26.70,SSE,158,5.1,5.1,83,0.00,,,0.00,WUHU216HW,2013-09-29 03:08:00,
2013-09-28 23:13:00,53.6,48.5,26.70,SSE,158,2.9,5.1,83,0.00,,,0.00,WUHU216HW,2013-09-29 03:13:00,
2013-09-28 23:18:00,53.4,48.3,26.70,SSE,158,4.0,5.1,83,0.00,,,0.00,WUHU216HW,2013-09-29 03:18:00,
2013-09-28 23:23:00,53.4,48.3,26.70,SSE,158,1.3,4.0,83,0.00,,,0.00,WUHU216HW,2013-09-29 03:23:00,
2013-09-28 23:28:00,53.4,48.3,26.70,SSE,158,2.6,3.5,83,0.00,,,0.00,WUHU216HW,2013-09-29 03:28:00,
2013-09-28 23:33:00,53.4,48.3,26.70,SSE,158,3.8,3.8,83,0.00,,,0.00,WUHU216HW,2013-09-29 03:33:00,
2013-09-28 23:38:00,53.2,48.2,26.70,SSE,158,0.0,3.8,83,0.00,,,0.00,WUHU216HW,2013-09-29 03:38:00,
2013-09-28 23:43:00,53.2,48.2,26.70,SSE,158,3.3,3.5,83,0.00,,,0.00,WUHU216HW,2013-09-29 03:43:00,
2013-09-28 23:48:00,53.2,48.2,26.70,SE,135,0.0,3.5,83,0.00,,,0.00,WUHU216HW,2013-09-29 03:48:00,
2013-09-28 23:53:00,53.2,48.2,26.70,SSE,158,0.0,3.3,83,0.00,,,0.00,WUHU216HW,2013-09-29 03:53:00,
2013-09-28 23:59:00,53.2,48.2,26.70,SSE,158,0.0,1.7,83,0.00,,,0.00,WUHU216HW,2013-09-29 03:59:00,